Location: Berkeley
(37.8716°N, 122.2727°W)
Time: 13:43:44
(UTC-07:00)

Envisat - Visible Passes

Search period start: 22 August 2017 00:00
Search period end: 01 September 2017 00:00
Orbit: 764 x 766 km, 98.2° (Epoch: 22 August)

Date Brightness Start Highest point End Pass type
(mag) Time Alt. Az. Time Alt. Az. Time Alt. Az.
22 Aug 4.2 21:37:54 10° SSW 21:42:38 40° W 21:47:25 10° NNW visible
23 Aug 3.0 21:00:49 10° SSE 21:05:53 88° ENE 21:10:59 10° NNW visible
24 Aug 3.6 20:24:39 10° SE 20:29:20 38° ENE 20:34:01 10° N visible
24 Aug 5.1 22:04:30 10° SW 22:08:25 22° W 22:12:21 10° NW visible
25 Aug 3.7 21:26:36 10° S 21:31:31 51° W 21:36:28 10° NNW visible
26 Aug 3.0 20:49:47 10° SSE 20:54:49 69° ENE 20:59:53 10° N visible
26 Aug 5.7 22:32:22 10° WSW 22:34:17 12° W 22:36:13 10° WNW visible
27 Aug 3.9 20:13:55 10° SE 20:18:19 30° ENE 20:22:43 10° N visible
27 Aug 4.8 21:52:54 10° SSW 21:57:15 28° W 22:01:37 10° NW visible
28 Aug 3.3 21:15:23 10° S 21:20:25 66° WSW 21:25:29 10° NNW visible
29 Aug 3.2 20:38:50 10° SSE 20:43:46 54° ENE 20:48:43 10° N visible
29 Aug 5.5 22:20:03 10° SW 22:23:04 16° W 22:26:06 10° NW visible
30 Aug 4.2 20:03:17 10° ESE 20:07:18 24° ENE 20:11:21 10° NNE visible
30 Aug 4.3 21:41:30 10° SSW 21:46:06 36° W 21:50:46 10° NNW visible
31 Aug 3.0 21:04:29 11° SSE 21:09:19 85° WSW 21:14:25 10° NNW visible
